User: anonymous   Login
Location: Brno
(49.2000°N, 16.6330°E)
Time: 03:50:36
(UTC+02:00)
Language:

Meteor 1-4 Rocket - Orbit

View from above orbital plane
View from above orbital plane
View from above satellite
View from above satellite

Ground track
Ground track

The orbit data is extracted from the following two-line orbital elements,

1 04394U 70037B   15242.52654944  .00002925  00000-0  11264-3 0  9995
2 04394 081.2415 064.4160 0043346 200.9852 158.9606 15.25118070464560
Epoch (UTC): 30 August 2015 12:38:13
Eccentricity: 0.0043346
inclination: 81.2415°
perigee height: 460 km
apogee height: 520 km
right ascension of ascending node: 64.4160°
argument of perigee: 200.9852°
revolutions per day: 15.25118070
mean anomaly at epoch: 158.9606°
orbit number at epoch: 46456

The dashed part of the orbit path shows where the satellite is in the earth's shadow,  

DLR